軌道要素
Epoch 2022 Jan. 21.0 TT = JDT 2459600.5
T 2021 Aug. 30.43472 TT Rudenko
q 1.2345426 (2000.0) P Q
n 0.16547367 Peri. 180.89709 +0.49007630 -0.85669562
a 3.2858681 Node 239.77287 +0.80090580 +0.51541546
e 0.6242872 Incl. 10.73410 +0.34405684 +0.02048205
P 5.96
From 265 observations 2021 Aug. 29-2022 Jan. 25, mean residual 0".7.
|